Погода в Серпейске

Россия / Калужская область     54°20′10″N   34°59′27″E
темп.,
°C
ветер,
м/с
пор.,
м/с
влажн.,
%
обл.,
%
осадки,
мм/ч
давл.,
гПа
погр.,
м
22 января, сб
сб2200:00−4ююз4896100 0.5 995394
03:00−8ююз379792 0.6 998118
06:00−7юз379680 0.1 999192
09:00−13ююз249987 0.2 100249
12:00−9ююз249571 0.0 1005163
15:00−7ююз249296 0.1 1007339
18:00−9ююз119799 0.1 100911
21:00−10вюв119885 0.3 101210
23 января, вс
вс2300:00−15вюв2210099 0.0 101410
03:00−10всв2596100 0.3 1016103
06:00−14всв2210084 0.1 102022
09:00−17св22100100 0.1 102427
12:00−10всв239782 0.0 1027110
15:00−8ссв239536 0.0 1028125
18:00−15св2210094 0.0 103220
21:00−16св23100100 0.0 103545
24 января, пн
пн2400:00−17св22100100 0.0 103630
03:00−17ссв35100100 0.1 103758
06:00−17ссв36100100 0.0 103883
09:00−18св37100100 0.1 103882
12:00−12св369790 0.0 1037148
15:00−10ссв369556 0.0 1036192
18:00−13св369862 0.0 103583
21:00−15св249987 0.0 103551
25 января, вт
вт2500:00−16св23100100 0.0 103348
03:00−19св22100100 0.1 103113
06:00−20в11100100 0.0 102910
09:00−20юв11100100 0.0 10289
12:00−11ю239313 0.0 1025117
15:00−9ю34925 0.0 1022193
18:00−15ю359972 0.0 102144
21:00−13юз2698100 0.0 1020108
26 января, ср
ср2600:00−14юз2597100 0.0 102081
03:00−16юз3598100 0.0 102068
06:00−15зюз2499100 0.1 102070
09:00−10зсз2496100 0.3 1020117
12:00−6ссз1494100 0.7 1020301
15:00−6ссз349298 1.0 1020437
18:00−8ссз3590100 0.1 1021169
21:00−8сз2387100 0.1 102080